Content
SEND FEEDBACK

Canada Flag

QUEBEC CITY, QUEBEC


Home > North America > Canada > Quebec
Elevation: 72 meters     Latitude: 46 48N     Longitude: 071 23W

WEATHER
 
SELECT A DAY
Number of Records: 215,370;   Date Range: 6/30/96 - 3/22/16
 
SHARE

PRINT THIS DATA

[ ← Previous Day ]
WEATHER ALMANAC - 19 MARCH, 2013
[ Next Day → ]
[ °F ]   °C
Weather ElementAverageHighLow
Temperature-6.4 °C-5.6 °C (5:00 am)-8 °C (1:00 am)
Dewpoint-12.4 °C-6.1 °C (11:00 pm) (7:00 pm)
Humidity74.7 %95 % (11:00 pm)38 % (8:00 am)
Wind Speed31.7 km/h51.8 km/h (11:14 am)
Wind Gust53.8 km/h (5:00 am)
Weather ElementAverage
Visibility7.6 km
Wind Direction (362.4 °)

Weather ElementTotal
Precipitation---
Heating Degree Days25.1 (Base 18.3)
Averaged from 46 records on 19 March, 2013
WEATHER CONDITIONS BREAKOUT
WIND DIRECTION BREAKOUT
WEATHER BY HOUR - 19 MARCH, 2013
[ °F ]   °C
Local TimeTemperatureDewpointHumidityBarometerVisibilityWind DirectionWind SpeedGust SpeedPrecipitationEventsConditions
1:00 AM-8 °C-15 °C58 %1024.4 hPa24.1 kmNE (50°)16.7 km/hMostly Cloudy
2:00 AM-6.7 °C-12.8 °C48 %1023.7 hPaENE (70°)13 km/h
2:00 AM-7 °C-16 °C49 %1023.7 hPa24.1 kmENE (60°)18.5 km/hMostly Cloudy
3:00 AM-6 °C-11 °C68 %1022.7 hPa24.1 kmENE (70°)29.6 km/h48.1 km/hMostly Cloudy
4:00 AM-6 °C-11 °C68 %1022.4 hPa24.1 kmENE (70°)31.5 km/h44.4 km/hOvercast
5:00 AM-6 °C-12 °C63 %1021.7 hPa24.1 kmENE (70°)33.3 km/h53.8 km/hMostly Cloudy
5:00 AM-5.6 °C-11.1 °C52 %1021.3 hPaENE (70°)22.2 km/h
6:00 AM-6 °C-14 °C54 %1021.3 hPa24.1 kmENE (60°)35.2 km/h51.8 km/hOvercast
7:00 AM-6 °C-14 °C54 %1021.3 hPa32.2 kmENE (60°)37 km/h50.1 km/hOvercast
8:00 AM-5.6 °C-13.9 °C38 %1020.7 hPaENE (70°)27.8 km/h
8:00 AM-6 °C-14 °C54 %1020.7 hPa32.2 kmENE (70°)37 km/h48.1 km/hOvercast
9:00 AM-6 °C-14 °C54 %1020 hPa19.3 kmEast (80°)29.6 km/h38.9 km/hOvercast
9:35 AM-6 °C-17.8 °C9.7 kmENE (70°)31.5 km/h44.4 km/hSnowLight Snow
10:00 AM-6 °C-11 °C68 %1020 hPa6.4 kmEast (80°)29.6 km/h50.1 km/hSnowLight Snow
10:07 AM-6 °C-17.8 °C4 kmENE (70°)29.6 km/h50.1 km/hSnowLight Snow
10:19 AM-7 °C-17.8 °C2.4 kmEast (80°)31.5 km/h50.1 km/hSnowLight Snow
10:43 AM-7 °C-17.8 °C1.9 kmENE (70°)24.1 km/h46.3 km/hSnowLight Snow
10:52 AM-7 °C-17.8 °C1.6 kmENE (60°)38.9 km/h48.1 km/hSnowLight Snow
11:00 AM-7.2 °C-9.4 °C76 %1019.3 hPaENE (70°)22.2 km/h
11:00 AM-7 °C-10 °C80 %1019.3 hPa1.3 kmENE (70°)40.7 km/h50.1 km/hSnowLight Snow
11:14 AM-7 °C-17.8 °C0 km20.7 (2013°)51.8 km/h0 mmLight Snow60
11:39 AM-7 °C-17.8 °C0 km19.6 (2013°)51.8 km/h0 mmLight Snow60
12:00 PM-7 °C-9 °C86 %1018.6 hPa0.8 kmENE (60°)27.8 km/h46.3 km/hSnowLight Snow
12:18 PM-7 °C-17.8 °C0 km24.2 (2013°)48.1 km/h0 mmLight Snow60
12:37 PM-7 °C-17.8 °C0 km19.6 (2013°)48.1 km/h0 mmLight Snow60
1:00 PM-7 °C-9 °C86 %1017.9 hPa1.6 kmENE (60°)37 km/h50.1 km/hSnowLight Snow
2:00 PM-6.7 °C-8.3 °C81 %1016.6 hPaENE (70°)25.9 km/h
2:00 PM-7 °C-9 °C86 %1016.6 hPa2.4 kmENE (60°)31.5 km/h50.1 km/hSnowLight Snow
2:19 PM-7 °C-17.8 °C0 km21.9 (2013°)50.1 km/h0 mmLight Snow70
3:00 PM-7 °C-8 °C93 %1016.3 hPa1.3 kmENE (70°)31.5 km/h53.8 km/hSnowLight Snow
3:23 PM-7 °C-17.8 °C0 km21.9 (2013°)50.1 km/h0 mmLight Snow60
3:42 PM-7 °C-17.8 °C2.4 kmENE (60°)37 km/hSnowLight Snow
4:00 PM-6 °C-9 °C80 %1015.2 hPa6.4 kmENE (70°)31.5 km/h53.8 km/hSnowLight Snow Showers
4:31 PM-6 °C-17.8 °C1.9 kmENE (60°)27.8 km/h48.1 km/hSnowLight Snow Showers
5:00 PM-6 °C-8 °C86 %1014.2 hPa4.8 kmENE (60°)27.8 km/h46.3 km/hSnowLight Snow Showers
5:00 PM-5.6 °C-7.8 °C77 %1014.2 hPaENE (70°)22.2 km/h
5:41 PM-6 °C-17.8 °C1.6 kmENE (60°)29.6 km/h48.1 km/hSnowLight Snow Showers
6:00 PM-6 °C-8 °C86 %1013.9 hPa0.8 kmENE (60°)33.3 km/h51.8 km/hSnowLight Snow Showers
7:00 PM-6 °C-7 °C93 %1013.5 hPa0.8 kmENE (60°)29.6 km/h40.7 km/hSnowLight Snow Showers
8:00 PM-6 °C-7 °C93 %1013.2 hPa0.8 kmENE (60°)37 km/h50.1 km/hSnowLight Snow Showers
8:00 PM-5.6 °C-6.7 °C91 %1013.2 hPaENE (70°)20.4 km/h
9:00 PM-6 °C-7 °C93 %1012.9 hPa0.8 kmENE (70°)25.9 km/h37 km/hSnowLight Snow Showers
10:00 PM-6 °C-7 °C93 %1012.2 hPa0.8 kmENE (70°)25.9 km/h38.9 km/hSnowLight Snow
10:42 PM-6 °C-7 °C93 %0 km15.0 (2013°)37 km/h0 mmLight Snow50
11:00 PM-5.6 °C-6.1 °C95 %1011.5 hPaENE (70°)16.7 km/h
11:00 PM-6 °C-7 °C93 %1011.5 hPa1.6 kmNE (50°)22.2 km/h31.5 km/hSnowLight Snow
Hourly data recorded from CYQB, located 0 kilometers away from Quebec City, Quebec




STORIES FROM OUR PARTNERS